Powrót do katalogu

STARLINK-5058

AktywnyŁącznośćVLEO
NORAD 55456·PAYLOAD·🇺🇸 United States

Wystrzelony Feb 2, 2023 z Cape Canaveral Space Force Station

Loading…

Następne Przeloty (najbliższe 24 godziny)

TLE

ŚwieżeSource: CelesTrak SupGP

Epoka: Sep 14, 2026, 21:27 UTC

1 55456C 23015H   26257.89423611 -.00055402  00000+0 -20065-2 0  2571
2 55456  43.0016 340.1239 0001509 266.8037 297.3255 15.27608261    12

Śledź STARLINK-5058 w czasie rzeczywistym z AllMySat

Download on the App Store